STARLINK-11490, 62219

Orbit data source: Space-Track

STARLINK-11490, 62219 is a payload satellite owned by SpaceX/Seattle (US) in LEO that was launched on Thu, 05 Dec 2024 UTC via an FALCON 9 launch vehicle from the Air Force Western Test Range (AFWTR). Payloads include a variety of satellites, spacecraft, and rockets equipped with specific instruments for various scientific and technological missions. These include communications satellites like Starlink; space stations such as the ISS; scientific satellites like the Hubble; Earth observation satellites from companies like Planet Labs, Umbra, and HawkEye 360; GPS; miniature CubeSats for education and research; and military/defense satellites.

Loading next visibility...
STARLINK-11490 details
Identifier
62219, 2024-231B
Orbit
LEO
Last TLE update11 hours ago
Origin
Flag of USSpaceX/Seattle (US)
ManufacturerSpaceX/Seattle
MissionOperational spacecraft
Bus & MotorSTARLINK V2M, Unknown motor
Mass730 kg wet, ~700 kg dry
Launch date (UTC)
2024-12-05 (2 months ago)
Launch vehicle
FALCON 9
Launch site
Air Force Western Test Range (AFWTR)
Object type
Payload
Rocket body
Debris
Shape & HBRUnknown
Radar Cross SectionLarge (>1 m²)

Expand to show TLE details & history

TLE from 11 hours ago
0 STARLINK-11490
1 62219U 24231B   25025.33334491  .00040918  00000-0  34125-3 0  9996
2 62219  53.1581 314.3954 0001073  75.4871 280.1902 15.69687545  6012
Epoch: 2025-01-25T08:00Z
Definitive object data (Epoch: 2025-01-25T08:00:01Z)
Latitude-3.57125°
Longitude66.84246°
Altitude361.111 km
Speed7.694 km/s
True Right ascension20h 46m 55s
True Declination-3° 32' 55"
Sunlit
Object was in daylight at TLE epoch
Visualization TLE readout
Latitude15.40245°
Longitude-124.67821°
Altitude359.81 km
Speed7.696 km/s
Apparent Right ascension08h 19m 42s
Apparent Declination-11° 25' 22"
Sunlit
Object is in full shadow
Visualization observer readout
Local Sidereal Time20:44:44
Azimuth12.726° NNE
Elevation-60.973°
Doppler factor1
Orbital elements
Apogee altitude360.775 km
Perigee altitude359.329 km
Semi-major axis6,738.189 km
Eccentricity0.0001073
Inclination53.1581°
RAAN314.3954°
Arg. of periapsis75.4871°
True anomaly280.1781°
Mean anomaly280.1902°
Eccentric anomaly280.18415°
Mean motion3.92399 °/min
BSTAR0.00034125
Orbital period91.74 mins
Loading maneuver chart data...
Loading historical data...
Loading historical data...
Loading historical data...
Loading historical data...
Loading historical data...
Loading historical data...
Loading historical data...

STARLINK-11490 Visibility forecast

Observer location: undefined°, undefined

Span
Click to sort rows by Start time (UTC) header in descending order
Start Az.
Max El. time (UTC)
Max El. Az.
Max El.
End time (UTC)
End Az.
4 mins2025-01-25 21:57:48.700Z229.526° WSW2025-01-25 21:59:48.700Z249.048° W44.981°2025-01-25 22:01:48.700Z49.617° ENE
4 mins2025-01-26 04:22:48.700Z325.415° NNW2025-01-26 04:24:48.700Z61.26° ENE37.93°2025-01-26 04:26:48.700Z113.243° SE
|